Time,TemperatureF,DewpointF,PressureIn,WindDirection,WindDirectionDegrees,WindSpeedMPH,WindSpeedGustMPH,Humidity,HourlyPrecipIn,Conditions,Clouds,dailyrainin,SoftwareType,DateUTC
2013-08-17 17:58:00,82.4,56.3,30.22,WSW,247,1.6,-999.0,41,-99.99,,,0.00,Acu-Link.com,2013-08-17 21:58:00,
2013-08-17 18:13:00,79.3,56.1,30.22,West,270,1.6,-999.0,45,-99.99,,,0.00,Acu-Link.com,2013-08-17 22:13:00,
2013-08-17 18:28:00,77.5,61.6,30.21,South,180,0.0,-999.0,58,-99.99,,,0.00,Acu-Link.com,2013-08-17 22:28:00,
2013-08-17 18:43:00,76.3,61.4,30.22,South,180,0.0,-999.0,60,-99.99,,,0.00,Acu-Link.com,2013-08-17 22:43:00,
2013-08-17 18:58:00,74.1,61.1,30.22,SSE,157,0.0,-999.0,64,-99.99,,,0.00,Acu-Link.com,2013-08-17 22:58:00,
2013-08-17 19:13:00,72.1,61.4,30.22,SSE,157,0.0,-999.0,69,-99.99,,,0.00,Acu-Link.com,2013-08-17 23:13:00,
2013-08-17 19:28:00,70.5,60.7,30.22,SSE,157,0.0,-999.0,71,-99.99,,,0.00,Acu-Link.com,2013-08-17 23:28:00,
2013-08-17 19:43:00,67.5,60.4,30.22,SSE,157,0.0,-999.0,78,-99.99,,,0.00,Acu-Link.com,2013-08-17 23:43:00,
2013-08-17 19:58:00,65.8,59.5,30.23,SSE,157,0.0,-999.0,80,-99.99,,,0.00,Acu-Link.com,2013-08-17 23:58:00,
2013-08-17 20:13:00,64.2,59.3,30.23,SSE,157,0.0,-999.0,84,-99.99,,,0.00,Acu-Link.com,2013-08-18 00:13:00,
2013-08-17 20:28:00,63.1,59.2,30.23,SSE,157,0.0,-999.0,87,-99.99,,,0.00,Acu-Link.com,2013-08-18 00:28:00,
2013-08-17 20:43:00,61.9,58.6,30.23,SSE,157,0.0,-999.0,89,-99.99,,,0.00,Acu-Link.com,2013-08-18 00:43:00,
2013-08-17 20:58:00,60.8,58.2,30.23,SSE,157,0.0,-999.0,91,-99.99,,,0.00,Acu-Link.com,2013-08-18 00:58:00,
2013-08-17 21:13:00,60.1,57.4,30.23,SSE,157,0.0,-999.0,91,-99.99,,,0.00,Acu-Link.com,2013-08-18 01:13:00,
2013-08-17 21:28:00,59.4,57.0,30.24,SSE,157,0.0,-999.0,92,-99.99,,,0.00,Acu-Link.com,2013-08-18 01:28:00,
2013-08-17 21:43:00,58.6,56.9,30.24,SSE,157,0.0,-999.0,94,-99.99,,,0.00,Acu-Link.com,2013-08-18 01:43:00,
2013-08-17 21:58:00,58.1,56.4,30.24,SSE,157,0.0,-999.0,94,-99.99,,,0.00,Acu-Link.com,2013-08-18 01:58:00,
2013-08-17 22:14:00,57.6,56.4,30.24,SSE,157,0.0,-999.0,96,-99.99,,,0.00,Acu-Link.com,2013-08-18 02:14:00,
2013-08-17 22:29:00,57.2,56.9,30.24,South,180,0.0,-999.0,99,-99.99,,,0.00,Acu-Link.com,2013-08-18 02:29:00,
2013-08-17 22:44:00,56.8,56.0,30.24,SSE,157,0.0,-999.0,97,-99.99,,,0.00,Acu-Link.com,2013-08-18 02:44:00,
2013-08-17 22:59:00,56.8,56.3,30.25,SSE,157,0.0,-999.0,98,-99.99,,,0.00,Acu-Link.com,2013-08-18 02:59:00,
2013-08-17 23:14:00,56.7,56.4,30.25,SSE,157,0.0,-999.0,99,-99.99,,,0.00,Acu-Link.com,2013-08-18 03:14:00,
2013-08-17 23:29:00,56.5,56.2,30.25,SSE,157,0.0,-999.0,99,-99.99,,,0.00,Acu-Link.com,2013-08-18 03:29:00,
2013-08-17 23:44:00,55.9,55.1,30.25,SSE,157,0.0,-999.0,97,-99.99,,,0.00,Acu-Link.com,2013-08-18 03:44:00,
2013-08-17 23:59:00,55.6,54.7,30.25,SSE,157,0.0,-999.0,97,-99.99,,,0.00,Acu-Link.com,2013-08-18 03:59:00,